Location: Fuller Park
(33.8686°N, 117.9781°W)
Time: 10:04:58
(UTC+00:00)

CZ-3C R/B - Pass Details

Date: 03 August 2024
Orbit: 267 x 32385 km, 20.6° (Epoch: 09 September)

Event Time Altitude Azimuth Distance (km) Brightness Sun altitude
Exits shadow 11:22:42 24° 208° (SSW) 2,810 3.8 -19.4°
Maximum altitude 11:28:29 44° 150° (SSE) 3,556 4.8 -18.4°
Drops below altitude 10° 19:24:51 10° 133° (SE) 20,479 9.1 71.8°
Sets 19:45:44 0° 129° (SE) 17,266 8.6 73.1°
